Погода в Катериновке

Украина / Луганская область     48°39′53″N   38°28′18″E
темп.,
°C
ветер,
м/с
пор.,
м/с
влажн.,
%
обл.,
%
осадки,
мм/ч
давл.,
гПа
погр.,
м
16 октября, сб
сб1600:00+10в2555100 0.0 1023141
03:00+8в346142 0.0 102273
06:00+6в366799 0.0 1022134
09:00+10в585276 0.0 1021336
12:00+15вюв4544100 0.0 1019688
15:00+16в3445100 0.0 1017920
18:00+13всв2255100 0.0 101729
21:00+13св2257100 0.0 101717
17 октября, вс
вс1700:00+12св225785 0.0 101626
03:00+11ссв2258100 0.0 101613
06:00+10ссв2459100 0.0 101784
09:00+12св2452100 0.0 1017227
12:00+15ссв3442100 0.0 1016571
15:00+16ссв3442100 0.0 1015752
18:00+13с2253100 0.0 101610
21:00+12с236494 0.0 101674
18 октября, пн
пн1800:00+12ссз2262100 0.0 101653
03:00+11сз2361100 0.0 101690
06:00+11ссз246356 0.0 1017181
09:00+10ссз346380 0.0 1017301
12:00+14сз345039 0.0 1017966
15:00+15зсз454192 0.0 10161452
18:00+11зсз3651100 0.0 1017157
21:00+9зсз346098 0.0 101787
19 октября, вт
вт1900:00+7з2366100 0.0 101748
03:00+7з3760100 0.0 1017255
06:00+7з3772100 0.1 1017973
09:00+9з4668100 0.1 1017683
12:00+8зсз5675100 0.2 10171138
15:00+8сз4577100 0.5 10171062
18:00+6з237735 0.1 101840
21:00+5сз39480 0.1 1020188
20 октября, ср
ср2000:00+3ссз49725 0.0 1021313
03:00+2сз487635 0.0 1023286
06:000сз47825 0.0 1025222
09:00+3сз47645 0.0 1027494
12:00+7ссз454158 0.0 10271525
15:00+8сз45355 0.0 10271656
18:00+5з3244100 0.0 102828
21:00+4зюз225086 0.0 102830